Inquirer Daily News

Weather

Get conditions and forecasts for any City, State, ZIP code or Country:  
Trenton, NJ
on Friday, December 28, 2012

Friday
Previous Day Next Day
Daily Summary
 ActualAverageRecord
Temperature
Mean Temperature °F 32°F  
Max Temperature 39°F 40°F 66°F (2008)
Min Temperature 25°F 24°F 6°F (1933)
Degree Days
Heating Degree Days 33 33  
Month to date heating degree days 652 820  
Since 1 July heating degree days 1659 1796  
Cooling Degree Days 0 0  
Month to date cooling degree days 0 0  
Year to date cooling degree days 1234 965  
Moisture
Dew Point 21°F   
Average Humidity 65    
Maximum Humidity 75    
Minimum Humidity 54    
Precipitation
Precipitation 0.00 in 0.08 in 1.53 in (1942)
Month to date precipitation 4.02 3.45  
Year to date precipitation 37.25 46.19  
Wind
Wind Speed 7 mph   
Max Wind Speed 21 mph   
Max Gust Speed 30 mph   
Visibility 10 miles   
Events     

Key: T is trace of precipitation, MM is missing value
Source: NWS Daily Summary
Time(EST)TemperatureDew PointHumidity Pressure Visibility Wind DirectionWind SpeedGust SpeedPrecipitationEvents Conditions
12:53 AM 30.9°F 19.9°F 64% 29.89 in 10.0 miles NNW 12.7 mph 29.9 mph N/A   Overcast
1:53 AM 30.9°F 19.9°F 64% 29.92 in 10.0 miles NNW 10.4 mph 18.4 mph N/A   Overcast
2:53 AM 30.9°F 19.9°F 64% 29.95 in 10.0 miles NNW 11.5 mph 18.4 mph N/A   Overcast
3:53 AM 30.9°F 19.9°F 64% 29.96 in 10.0 miles North 10.4 mph 18.4 mph N/A   Overcast
4:11 AM 30.2°F 19.4°F 64% 29.98 in 10.0 miles North 17.3 mph 26.5 mph N/A   Overcast
4:53 AM 30.9°F 19.9°F 64% 29.98 in 10.0 miles NNW 13.8 mph 20.7 mph N/A   Overcast
5:33 AM 30.2°F 19.4°F 64% 30.00 in 10.0 miles NNW 11.5 mph 23.0 mph N/A   Scattered Clouds
6:53 AM 30.0°F 19.9°F 66% 30.02 in 10.0 miles NNW 8.1 mph - N/A   Clear
7:53 AM 30.0°F 19.9°F 66% 30.03 in 10.0 miles NNW 8.1 mph - N/A   Clear
8:53 AM 32.0°F 21.0°F 64% 30.05 in 10.0 miles North 8.1 mph - N/A   Clear
9:26 AM 32.0°F 21.2°F 64% 30.08 in 10.0 miles North 11.5 mph - N/A   Mostly Cloudy
9:44 AM 33.8°F 21.2°F 60% 30.08 in 10.0 miles North 13.8 mph 18.4 mph N/A   Scattered Clouds
9:53 AM 34.0°F 21.0°F 59% 30.09 in 10.0 miles North 8.1 mph - N/A   Mostly Cloudy
10:09 AM 33.8°F 21.2°F 60% 30.09 in 10.0 miles North 10.4 mph - N/A   Scattered Clouds
11:53 AM 36.0°F 21.9°F 57% 30.06 in 10.0 miles NNW 5.8 mph - N/A   Clear
12:53 PM 37.0°F 23.0°F 57% 30.03 in 10.0 miles NW 5.8 mph 16.1 mph N/A   Clear
1:53 PM 37.9°F 23.0°F 55% 30.04 in 10.0 miles NNW 11.5 mph - N/A   Clear
2:53 PM 37.0°F 23.0°F 57% 30.04 in 10.0 miles NW 6.9 mph - N/A   Clear
3:53 PM 37.9°F 23.0°F 55% 30.04 in 10.0 miles North 9.2 mph - N/A   Clear
4:53 PM 35.1°F 23.0°F 61% 30.06 in 10.0 miles NW 3.5 mph - N/A   Clear
5:53 PM 34.0°F 23.0°F 64% 30.05 in 10.0 miles Calm Calm - N/A   Clear
6:53 PM 32.0°F 23.0°F 69% 30.07 in 10.0 miles Calm Calm - N/A   Clear
7:53 PM 30.0°F 23.0°F 75% 30.07 in 10.0 miles North 5.8 mph - N/A   Clear
8:53 PM 30.0°F 21.9°F 72% 30.06 in 10.0 miles North 3.5 mph - N/A   Clear
9:53 PM 28.9°F 21.0°F 72% 30.07 in 10.0 miles Calm Calm - N/A   Clear
11:53 PM 26.1°F 21.0°F 81% 30.03 in 10.0 miles Calm Calm - N/A   Clear
Astronomy
Sunrise:07:21 AM (EST) Moon Rise:05:15 PM (EST)12/28
Sunset:04:41 PM (EST) Moon Set:07:13 AM (EST)12/28
Moon Phase
Dec. 28 Jan. 04 Jan. 11 Jan. 18 Jan. 26

Copyright © 2014 The Weather Underground, Inc.